Flag for Argentina Weather past 2 weeks in Zárate, Buenos Aires, Argentina

Now
70 °F

Clear.


Feels Like: 70 °F
Forecast: 53 / 67 °F
Wind: 6 mph from North

Location: Buenos Aires Airport

Current Time: May 23, 2015 at 2:03:36 AM

Latest Report: May 23, 2015 at 1:00 AM


Visibility: 10 mi

Pressure: 29.80 "Hg

Humidity: 88%

Dew point: 66 °F

Location of ZárateLocation

Historic Weather in Zárate — Graph

°F

Zárate temperature yesterday

Maximum temperature yesterday: 75 °F (at 2:00 PM)
Minimum temperature yesterday: 66 °F (at 5:00 AM)
Average temperature yesterday: 71 °F

Past Weeks' High & Low Weather Summary

 TemperatureHumidityPressure
High77 °F (May 21, 2:00 PM)100% (May 9, 7:00 AM)30.27 "Hg (May 9, 7:00 AM)
Low55 °F (May 11, 7:00 AM)56% (May 8, 2:00 PM)29.80 "Hg (May 23, 1:00 AM)
Average66 °F83%30.08 "Hg
* Reported May 8 1:00 AM — May 23 1:00 AM, Zárate, Weather by CustomWeather, © 2015

Note: Actual official high and low records may vary slightly from our data, if they occured in-between our weather recording intervals... More about our weather records

Advertising

Zárate weather history for previous 24 hours

 ConditionsComfort  
Time TempWeatherWind HumidityBarometerVisibility
1:00 AM
Sat, May 23
70 °FClear.6 mph88%29.80 "Hg10 mi
12:00 AM70 °FClear.2 mph88%29.83 "Hg10 mi
11:00 PM
Fri, May 22
72 °FClear.1 mph83%29.83 "Hg10 mi
10:00 PM72 °FClear.1 mph88%29.83 "Hg10 mi
9:00 PM73 °FClear.2 mph83%29.83 "Hg10 mi
8:00 PM72 °FClear.5 mph88%29.83 "Hg10 mi
7:00 PM72 °FClear.5 mph88%29.83 "Hg10 mi
5:00 PM75 °FPassing clouds.9 mph78%29.83 "HgN/A
4:00 PM75 °FPartly sunny.6 mph78%29.86 "HgN/A
3:00 PM75 °FSunny.8 mph78%29.86 "Hg10 mi
2:00 PM75 °FSunny.6 mph78%29.89 "Hg10 mi
1:00 PM73 °FSunny.6 mph83%29.92 "Hg10 mi
12:00 PM73 °FSunny.6 mph83%29.95 "Hg10 mi
11:00 AM72 °FSunny.6 mph88%29.98 "Hg10 mi
10:00 AM68 °FSunny.6 mph88%29.95 "Hg10 mi
9:00 AM68 °FSunny.8 mph88%29.95 "Hg10 mi
8:00 AM68 °FSunny.7 mph88%29.95 "Hg10 mi
6:00 AM66 °FClear.9 mph88%29.95 "Hg10 mi
5:00 AM66 °FClear.6 mph94%29.92 "Hg10 mi
4:00 AM68 °FPassing clouds.6 mph88%29.95 "HgN/A
3:00 AM70 °FPassing clouds.5 mph88%29.95 "HgN/A
2:00 AM70 °FPassing clouds.5 mph88%29.95 "HgN/A
Weather by CustomWeather, © 2015

See weather overviewHow to use our weather pages